Aviation Digital Data Service (ADDS)

Output produced by METARs form (1100 UTC 30 April 2017)
found at http://www.aviationweather.gov/adds/metars/
 
LGAD 301050Z 29005KT CAVOK 24/08 Q1006
TAF LGAD 300800Z 3009/3018 VRB03KT 9999 FEW020 SCT080 
     BECMG 3009/3011 29013KT
       
LGAL 301050Z 06009KT 9999 FEW030 27/11 Q1010
TAF LGAL 300800Z 3009/3018 08005KT 9999 FEW020
       
LGAV 301050Z 05009KT 020V080 9999 FEW020 25/05 Q1009 NOSIG
TAF LGAV 300500Z 3006/0106 VRB05KT 9999 FEW020 BKN070 
     BECMG 3009/3011 04012KT FEW020 SCT070
       
LGBL 301050Z 12007KT 9999 FEW035 25/12 Q1010
TAF LGBL 301100Z 3012/3021 11010KT 9999 FEW030 SCT080 
     BECMG 3019/3021 26008KT
       
LGEL 301050Z 18004KT 9999 FEW025 28/01 Q1008
TAF LGEL 300500Z 3006/0106 VRB03KT 9999 FEW025 BKN070 
     BECMG 3009/3011 16010KT FEW025 
     BECMG 3018/3020 35010KT
       
LGHI 301050Z 12004KT CAVOK 25/09 Q1009
TAF LGHI 300800Z 3009/3018 VRB03KT 9999 FEW020
       
LGIO 301050Z /////KT 9999 SCT060 OVC160 26/07 Q1010
TAF LGIO 300800Z 3009/3018 VRB03KT 9999 FEW020 SCT060 
     PROB30 
     TEMPO 3009/3015 4000 SHRA FEW018CB BKN020
       
LGIR 301050Z 16015KT 9999 FEW025 27/14 Q1006 NOSIG
TAF LGIR 300500Z 3006/0106 17015KT 9999 FEW020 SCT080 
     BECMG 3014/3016 33010KT 
     PROB30 
     TEMPO 3018/0106 4000 SHRA FEW018CB BKN020
       
LGKC 301050Z VRB03KT 9999 FEW018 21/17 Q1009
TAF LGKC 300800Z 3009/3018 21010KT 9999 FEW020
       
LGKF 301050Z 33011KT 9999 FEW018 23/11 Q1007
TAF LGKF 300800Z 3009/3018 34015KT 9999 FEW018
       
LGKL 301050Z 18005KT 8000 SCT025 SCT080 21/15 Q1007
TAF LGKL 300800Z 3009/3018 VRB03KT 9999 FEW025 
     BECMG 3010/3012 19008KT
       
LGKO 301050Z 13012KT CAVOK 22/11 Q1010
TAF LGKO 300500Z 3006/0106 13010KT 9999 FEW020
       
LGKP 301050Z 12007KT CAVOK 22/15 Q1010
TAF LGKP 300800Z 3009/3018 16014KT 9999 FEW020
       
LGKR 301050Z 34008KT CAVOK 24/11 Q1007 NOSIG
TAF LGKR 300500Z 3006/0106 VRB03KT 9999 FEW025 
     BECMG 3009/3011 30013KT FEW025 SCT080 
     PROB30 
     TEMPO 3014/3021 4000 SHRA FEW018CB SCT020 BKN080
       
LGKV 301050Z 23005KT 9999 FEW035 BKN080 19/12 Q1011
TAF LGKV 300800Z 3009/3018 08005KT 9999 FEW025 BKN080
       
LGKZ 301050Z 00000KT 9999 FEW030 SCT070 OVC170 21/10 Q1013
LGLM 301050Z 36010KT 9999 FEW025 23/10 Q1011
TAF LGLM 300800Z 3009/3018 04008KT 9999 FEW020
       
TAF LGLR 301100Z 3012/3021 10008KT 9999 FEW030 SCT080 
     PROB30 
     TEMPO 3012/3018 5000 RA FEW030 BKN080 
     BECMG 3019/3021 VRB03KT
       
LGMK 301050Z /////KT CAVOK 22/09 Q1009
TAF LGMK 300800Z 3009/3018 10015KT 9999 FEW018
       
LGMT 301050Z 00000KT CAVOK 23/13 Q1011
TAF LGMT 300800Z 3009/3018 VRB03KT 9999 FEW020
       
LGNX 301050Z 35008KT CAVOK 23/12 Q1008
LGPA 301050Z AUTO 13016KT //// // ////// 24/06 Q1008 RE//
LGPZ 301050Z 24010KT 9999 FEW025 21/13 Q1007
TAF LGPZ 300500Z 3006/0106 08010KT 9999 FEW025 BKN080 
     PROB30 
     TEMPO 3010/3018 7000 RA SCT025 BKN080 
     BECMG 3009/3011 25012KT 
     BECMG 3020/3022 05007KT 
     BECMG 0101/0103 FEW025
       
LGRP 301050Z 12008KT 070V160 9999 FEW018 27/04 Q1010 NOSIG
TAF LGRP 300500Z 3006/0106 VRB03KT 9999 FEW020 
     BECMG 3006/3008 14012KT
       
LGRX 301020Z 26007KT CAVOK 23/14 Q1006
TAF LGRX 301100Z 3012/3021 27010KT 9999 FEW025
       
LGSA 301050Z 05008KT 9999 FEW016 24/15 Q1007
TAF LGSA 300500Z 3006/0106 14014KT 9999 FEW020 SCT090 
     BECMG 3012/3014 27010KT 
     PROB30 
     TEMPO 3018/0106 4000 SHRA FEW018CB BKN020
       
LGSK 301050Z 01009KT 9999 FEW020 SCT090 BKN180 20/13 Q1011
TAF LGSK 300800Z 3009/3018 35010KT 9999 FEW020 SCT060
       
LGSM 300950Z 17005KT 9999 FEW020 22/13 Q1011
TAF LGSM 300800Z 3009/3018 VRB03KT 9999 FEW020
       
LGSO 300850Z 07004KT CAVOK 21/11 Q1009
LGSR 301050Z 10005KT 060V140 CAVOK 22/15 Q1008 RMK FEW080 BKN180 BLU
TAF LGSR 300500Z 3006/0106 15010KT 9999 FEW025 
     TEMPO 3010/3018 15012G22KT 
     BECMG 3013/3015 28014KT 
     BECMG 3023/0101 FEW015 SCT025
       
TAF LGST 300800Z 3009/3018 18010KT 9999 FEW020 SCT080
       
TAF LGSY 301100Z 3012/3021 01008KT 9999 FEW025 SCT050 
     PROB30 
     TEMPO 3012/3014 7000 RA FEW020 BKN050
       
TAF LGTG 301100Z 3012/3021 07010KT 9999 FEW030 SCT070 
     TEMPO 3012/3015 07015G25KT
       
TAF LGTL 301100Z 3012/3021 20012KT 9999 FEW020 
     TEMPO 3012/3014 25015G25KT
       
LGTS 301050Z 18005KT 9999 FEW025TCU SCT040 18/14 Q1012 NOSIG
TAF LGTS 300500Z 3006/0106 33012KT 9999 SCT030 
     TEMPO 3006/3020 8000 RA FEW015 BKN025 
     PROB30 
     TEMPO 3006/3018 6000 TSRA FEW015CB BKN025 
     BECMG 3011/3013 17010KT 
     BECMG 3021/3023 33012KT
       
LGZA 301050Z 16008KT 9999 FEW020 22/15 Q1007
TAF LGZA 300800Z 3009/3018 34015KT 9999 FEW020
       
LGPZ 301050Z 24010KT 9999 FEW025 21/13 Q1007
TAF LGPZ 300500Z 3006/0106 08010KT 9999 FEW025 BKN080 
     PROB30 
     TEMPO 3010/3018 7000 RA SCT025 BKN080 
     BECMG 3009/3011 25012KT 
     BECMG 3020/3022 05007KT 
     BECMG 0101/0103 FEW025
       
LGKC 301050Z VRB03KT 9999 FEW018 21/17 Q1009
TAF LGKC 300800Z 3009/3018 21010KT 9999 FEW020
       
LGKF 301050Z 33011KT 9999 FEW018 23/11 Q1007
TAF LGKF 300800Z 3009/3018 34015KT 9999 FEW018
       
LGKL 301050Z 18005KT 8000 SCT025 SCT080 21/15 Q1007
TAF LGKL 300800Z 3009/3018 VRB03KT 9999 FEW025 
     BECMG 3010/3012 19008KT
       
LGKO 301050Z 13012KT CAVOK 22/11 Q1010
TAF LGKO 300500Z 3006/0106 13010KT 9999 FEW020
       
LGKP 301050Z 12007KT CAVOK 22/15 Q1010
TAF LGKP 300800Z 3009/3018 16014KT 9999 FEW020
       
LGKR 301050Z 34008KT CAVOK 24/11 Q1007 NOSIG
TAF LGKR 300500Z 3006/0106 VRB03KT 9999 FEW025 
     BECMG 3009/3011 30013KT FEW025 SCT080 
     PROB30 
     TEMPO 3014/3021 4000 SHRA FEW018CB SCT020 BKN080
       
LGKV 301050Z 23005KT 9999 FEW035 BKN080 19/12 Q1011
TAF LGKV 300800Z 3009/3018 08005KT 9999 FEW025 BKN080
       
LGKZ 301050Z 00000KT 9999 FEW030 SCT070 OVC170 21/10 Q1013
LGAD 301050Z 29005KT CAVOK 24/08 Q1006
TAF LGAD 300800Z 3009/3018 VRB03KT 9999 FEW020 SCT080 
     BECMG 3009/3011 29013KT
       
LGRX 301020Z 26007KT CAVOK 23/14 Q1006
TAF LGRX 301100Z 3012/3021 27010KT 9999 FEW025
       
LGHI 301050Z 12004KT CAVOK 25/09 Q1009
TAF LGHI 300800Z 3009/3018 VRB03KT 9999 FEW020
       
LGRP 301050Z 12008KT 070V160 9999 FEW018 27/04 Q1010 NOSIG
TAF LGRP 300500Z 3006/0106 VRB03KT 9999 FEW020 
     BECMG 3006/3008 14012KT
       
LGAL 301050Z 06009KT 9999 FEW030 27/11 Q1010
TAF LGAL 300800Z 3009/3018 08005KT 9999 FEW020
       
LGEL 301050Z 18004KT 9999 FEW025 28/01 Q1008
TAF LGEL 300500Z 3006/0106 VRB03KT 9999 FEW025 BKN070 
     BECMG 3009/3011 16010KT FEW025 
     BECMG 3018/3020 35010KT
       
LGAV 301050Z 05009KT 020V080 9999 FEW020 25/05 Q1009 NOSIG
TAF LGAV 300500Z 3006/0106 VRB05KT 9999 FEW020 BKN070 
     BECMG 3009/3011 04012KT FEW020 SCT070
       
LGKZ 301050Z 00000KT 9999 FEW030 SCT070 OVC170 21/10 Q1013
LGIO 301050Z /////KT 9999 SCT060 OVC160 26/07 Q1010
TAF LGIO 300800Z 3009/3018 VRB03KT 9999 FEW020 SCT060 
     PROB30 
     TEMPO 3009/3015 4000 SHRA FEW018CB BKN020
       
LGKR 301050Z 34008KT CAVOK 24/11 Q1007 NOSIG
TAF LGKR 300500Z 3006/0106 VRB03KT 9999 FEW025 
     BECMG 3009/3011 30013KT FEW025 SCT080 
     PROB30 
     TEMPO 3014/3021 4000 SHRA FEW018CB SCT020 BKN080
       
LGKL 301050Z 18005KT 8000 SCT025 SCT080 21/15 Q1007
TAF LGKL 300800Z 3009/3018 VRB03KT 9999 FEW025 
     BECMG 3010/3012 19008KT
       
LGKP 301050Z 12007KT CAVOK 22/15 Q1010
TAF LGKP 300800Z 3009/3018 16014KT 9999 FEW020
       
TAF LGTL 301100Z 3012/3021 20012KT 9999 FEW020 
     TEMPO 3012/3014 25015G25KT
       
LGKF 301050Z 33011KT 9999 FEW018 23/11 Q1007
TAF LGKF 300800Z 3009/3018 34015KT 9999 FEW018
       
LGKC 301050Z VRB03KT 9999 FEW018 21/17 Q1009
TAF LGKC 300800Z 3009/3018 21010KT 9999 FEW020
       
LGKO 301050Z 13012KT CAVOK 22/11 Q1010
TAF LGKO 300500Z 3006/0106 13010KT 9999 FEW020
       
TAF LGLR 301100Z 3012/3021 10008KT 9999 FEW030 SCT080 
     PROB30 
     TEMPO 3012/3018 5000 RA FEW030 BKN080 
     BECMG 3019/3021 VRB03KT
       
LGLM 301050Z 36010KT 9999 FEW025 23/10 Q1011
TAF LGLM 300800Z 3009/3018 04008KT 9999 FEW020
       
LGTS 301050Z 18005KT 9999 FEW025TCU SCT040 18/14 Q1012 NOSIG
TAF LGTS 300500Z 3006/0106 33012KT 9999 SCT030 
     TEMPO 3006/3020 8000 RA FEW015 BKN025 
     PROB30 
     TEMPO 3006/3018 6000 TSRA FEW015CB BKN025 
     BECMG 3011/3013 17010KT 
     BECMG 3021/3023 33012KT
       
LGKV 301050Z 23005KT 9999 FEW035 BKN080 19/12 Q1011
TAF LGKV 300800Z 3009/3018 08005KT 9999 FEW025 BKN080
       
LGMK 301050Z /////KT CAVOK 22/09 Q1009
TAF LGMK 300800Z 3009/3018 10015KT 9999 FEW018
       
LGMT 301050Z 00000KT CAVOK 23/13 Q1011
TAF LGMT 300800Z 3009/3018 VRB03KT 9999 FEW020
       
LGBL 301050Z 12007KT 9999 FEW035 25/12 Q1010
TAF LGBL 301100Z 3012/3021 11010KT 9999 FEW030 SCT080 
     BECMG 3019/3021 26008KT
       
LGIR 301050Z 16015KT 9999 FEW025 27/14 Q1006 NOSIG
TAF LGIR 300500Z 3006/0106 17015KT 9999 FEW020 SCT080 
     BECMG 3014/3016 33010KT 
     PROB30 
     TEMPO 3018/0106 4000 SHRA FEW018CB BKN020
       
LGAD 301050Z 29005KT CAVOK 24/08 Q1006
TAF LGAD 300800Z 3009/3018 VRB03KT 9999 FEW020 SCT080 
     BECMG 3009/3011 29013KT
       
LGAL 301050Z 06009KT 9999 FEW030 27/11 Q1010
TAF LGAL 300800Z 3009/3018 08005KT 9999 FEW020
       
LGAV 301050Z 05009KT 020V080 9999 FEW020 25/05 Q1009 NOSIG
TAF LGAV 300500Z 3006/0106 VRB05KT 9999 FEW020 BKN070 
     BECMG 3009/3011 04012KT FEW020 SCT070
       
LGBL 301050Z 12007KT 9999 FEW035 25/12 Q1010
TAF LGBL 301100Z 3012/3021 11010KT 9999 FEW030 SCT080 
     BECMG 3019/3021 26008KT
       
LGEL 301050Z 18004KT 9999 FEW025 28/01 Q1008
TAF LGEL 300500Z 3006/0106 VRB03KT 9999 FEW025 BKN070 
     BECMG 3009/3011 16010KT FEW025 
     BECMG 3018/3020 35010KT
       
LGHI 301050Z 12004KT CAVOK 25/09 Q1009
TAF LGHI 300800Z 3009/3018 VRB03KT 9999 FEW020
       
LGIO 301050Z /////KT 9999 SCT060 OVC160 26/07 Q1010
TAF LGIO 300800Z 3009/3018 VRB03KT 9999 FEW020 SCT060 
     PROB30 
     TEMPO 3009/3015 4000 SHRA FEW018CB BKN020
       
LGIR 301050Z 16015KT 9999 FEW025 27/14 Q1006 NOSIG
TAF LGIR 300500Z 3006/0106 17015KT 9999 FEW020 SCT080 
     BECMG 3014/3016 33010KT 
     PROB30 
     TEMPO 3018/0106 4000 SHRA FEW018CB BKN020
       
LGKC 301050Z VRB03KT 9999 FEW018 21/17 Q1009
TAF LGKC 300800Z 3009/3018 21010KT 9999 FEW020
       
LGKF 301050Z 33011KT 9999 FEW018 23/11 Q1007
TAF LGKF 300800Z 3009/3018 34015KT 9999 FEW018
       
LGKL 301050Z 18005KT 8000 SCT025 SCT080 21/15 Q1007
TAF LGKL 300800Z 3009/3018 VRB03KT 9999 FEW025 
     BECMG 3010/3012 19008KT
       
LGKO 301050Z 13012KT CAVOK 22/11 Q1010
TAF LGKO 300500Z 3006/0106 13010KT 9999 FEW020
       
LGKP 301050Z 12007KT CAVOK 22/15 Q1010
TAF LGKP 300800Z 3009/3018 16014KT 9999 FEW020
       
LGKR 301050Z 34008KT CAVOK 24/11 Q1007 NOSIG
TAF LGKR 300500Z 3006/0106 VRB03KT 9999 FEW025 
     BECMG 3009/3011 30013KT FEW025 SCT080 
     PROB30 
     TEMPO 3014/3021 4000 SHRA FEW018CB SCT020 BKN080
       
LGKV 301050Z 23005KT 9999 FEW035 BKN080 19/12 Q1011
TAF LGKV 300800Z 3009/3018 08005KT 9999 FEW025 BKN080
       
LGKZ 301050Z 00000KT 9999 FEW030 SCT070 OVC170 21/10 Q1013
LGLM 301050Z 36010KT 9999 FEW025 23/10 Q1011
TAF LGLM 300800Z 3009/3018 04008KT 9999 FEW020
       
TAF LGLR 301100Z 3012/3021 10008KT 9999 FEW030 SCT080 
     PROB30 
     TEMPO 3012/3018 5000 RA FEW030 BKN080 
     BECMG 3019/3021 VRB03KT
       
LGMK 301050Z /////KT CAVOK 22/09 Q1009
TAF LGMK 300800Z 3009/3018 10015KT 9999 FEW018
       
LGMT 301050Z 00000KT CAVOK 23/13 Q1011
TAF LGMT 300800Z 3009/3018 VRB03KT 9999 FEW020
       
LGNX 301050Z 35008KT CAVOK 23/12 Q1008
LGPA 301050Z AUTO 13016KT //// // ////// 24/06 Q1008 RE//
LGPZ 301050Z 24010KT 9999 FEW025 21/13 Q1007
TAF LGPZ 300500Z 3006/0106 08010KT 9999 FEW025 BKN080 
     PROB30 
     TEMPO 3010/3018 7000 RA SCT025 BKN080 
     BECMG 3009/3011 25012KT 
     BECMG 3020/3022 05007KT 
     BECMG 0101/0103 FEW025
       
LGRP 301050Z 12008KT 070V160 9999 FEW018 27/04 Q1010 NOSIG
TAF LGRP 300500Z 3006/0106 VRB03KT 9999 FEW020 
     BECMG 3006/3008 14012KT
       
LGRX 301020Z 26007KT CAVOK 23/14 Q1006
TAF LGRX 301100Z 3012/3021 27010KT 9999 FEW025
       
LGSA 301050Z 05008KT 9999 FEW016 24/15 Q1007
TAF LGSA 300500Z 3006/0106 14014KT 9999 FEW020 SCT090 
     BECMG 3012/3014 27010KT 
     PROB30 
     TEMPO 3018/0106 4000 SHRA FEW018CB BKN020
       
LGSK 301050Z 01009KT 9999 FEW020 SCT090 BKN180 20/13 Q1011
TAF LGSK 300800Z 3009/3018 35010KT 9999 FEW020 SCT060
       
LGSM 300950Z 17005KT 9999 FEW020 22/13 Q1011
TAF LGSM 300800Z 3009/3018 VRB03KT 9999 FEW020
       
LGSO 300850Z 07004KT CAVOK 21/11 Q1009
LGSR 301050Z 10005KT 060V140 CAVOK 22/15 Q1008 RMK FEW080 BKN180 BLU
TAF LGSR 300500Z 3006/0106 15010KT 9999 FEW025 
     TEMPO 3010/3018 15012G22KT 
     BECMG 3013/3015 28014KT 
     BECMG 3023/0101 FEW015 SCT025
       
TAF LGST 300800Z 3009/3018 18010KT 9999 FEW020 SCT080
       
TAF LGSY 301100Z 3012/3021 01008KT 9999 FEW025 SCT050 
     PROB30 
     TEMPO 3012/3014 7000 RA FEW020 BKN050
       
TAF LGTG 301100Z 3012/3021 07010KT 9999 FEW030 SCT070 
     TEMPO 3012/3015 07015G25KT
       
TAF LGTL 301100Z 3012/3021 20012KT 9999 FEW020 
     TEMPO 3012/3014 25015G25KT
       
LGTS 301050Z 18005KT 9999 FEW025TCU SCT040 18/14 Q1012 NOSIG
TAF LGTS 300500Z 3006/0106 33012KT 9999 SCT030 
     TEMPO 3006/3020 8000 RA FEW015 BKN025 
     PROB30 
     TEMPO 3006/3018 6000 TSRA FEW015CB BKN025 
     BECMG 3011/3013 17010KT 
     BECMG 3021/3023 33012KT
       
LGZA 301050Z 16008KT 9999 FEW020 22/15 Q1007
TAF LGZA 300800Z 3009/3018 34015KT 9999 FEW020
       
LGAD 301050Z 29005KT CAVOK 24/08 Q1006
TAF LGAD 300800Z 3009/3018 VRB03KT 9999 FEW020 SCT080 
     BECMG 3009/3011 29013KT
       
LGAL 301050Z 06009KT 9999 FEW030 27/11 Q1010
TAF LGAL 300800Z 3009/3018 08005KT 9999 FEW020
       
LGAV 301050Z 05009KT 020V080 9999 FEW020 25/05 Q1009 NOSIG
TAF LGAV 300500Z 3006/0106 VRB05KT 9999 FEW020 BKN070 
     BECMG 3009/3011 04012KT FEW020 SCT070
       
LGBL 301050Z 12007KT 9999 FEW035 25/12 Q1010
TAF LGBL 301100Z 3012/3021 11010KT 9999 FEW030 SCT080 
     BECMG 3019/3021 26008KT
       
LGEL 301050Z 18004KT 9999 FEW025 28/01 Q1008
TAF LGEL 300500Z 3006/0106 VRB03KT 9999 FEW025 BKN070 
     BECMG 3009/3011 16010KT FEW025 
     BECMG 3018/3020 35010KT
       
LGHI 301050Z 12004KT CAVOK 25/09 Q1009
TAF LGHI 300800Z 3009/3018 VRB03KT 9999 FEW020
       
LGIO 301050Z /////KT 9999 SCT060 OVC160 26/07 Q1010
TAF LGIO 300800Z 3009/3018 VRB03KT 9999 FEW020 SCT060 
     PROB30 
     TEMPO 3009/3015 4000 SHRA FEW018CB BKN020
       
LGIR 301050Z 16015KT 9999 FEW025 27/14 Q1006 NOSIG
TAF LGIR 300500Z 3006/0106 17015KT 9999 FEW020 SCT080 
     BECMG 3014/3016 33010KT 
     PROB30 
     TEMPO 3018/0106 4000 SHRA FEW018CB BKN020
       
LGKC 301050Z VRB03KT 9999 FEW018 21/17 Q1009
TAF LGKC 300800Z 3009/3018 21010KT 9999 FEW020
       
LGKF 301050Z 33011KT 9999 FEW018 23/11 Q1007
TAF LGKF 300800Z 3009/3018 34015KT 9999 FEW018
       
LGKL 301050Z 18005KT 8000 SCT025 SCT080 21/15 Q1007
TAF LGKL 300800Z 3009/3018 VRB03KT 9999 FEW025 
     BECMG 3010/3012 19008KT
       
LGKO 301050Z 13012KT CAVOK 22/11 Q1010
TAF LGKO 300500Z 3006/0106 13010KT 9999 FEW020
       
LGKP 301050Z 12007KT CAVOK 22/15 Q1010
TAF LGKP 300800Z 3009/3018 16014KT 9999 FEW020
       
LGKR 301050Z 34008KT CAVOK 24/11 Q1007 NOSIG
TAF LGKR 300500Z 3006/0106 VRB03KT 9999 FEW025 
     BECMG 3009/3011 30013KT FEW025 SCT080 
     PROB30 
     TEMPO 3014/3021 4000 SHRA FEW018CB SCT020 BKN080
       
LGKV 301050Z 23005KT 9999 FEW035 BKN080 19/12 Q1011
TAF LGKV 300800Z 3009/3018 08005KT 9999 FEW025 BKN080
       
LGKZ 301050Z 00000KT 9999 FEW030 SCT070 OVC170 21/10 Q1013
LGLM 301050Z 36010KT 9999 FEW025 23/10 Q1011
TAF LGLM 300800Z 3009/3018 04008KT 9999 FEW020
       
TAF LGLR 301100Z 3012/3021 10008KT 9999 FEW030 SCT080 
     PROB30 
     TEMPO 3012/3018 5000 RA FEW030 BKN080 
     BECMG 3019/3021 VRB03KT
       
LGMK 301050Z /////KT CAVOK 22/09 Q1009
TAF LGMK 300800Z 3009/3018 10015KT 9999 FEW018
       
LGMT 301050Z 00000KT CAVOK 23/13 Q1011
TAF LGMT 300800Z 3009/3018 VRB03KT 9999 FEW020
       
LGNX 301050Z 35008KT CAVOK 23/12 Q1008
LGPA 301050Z AUTO 13016KT //// // ////// 24/06 Q1008 RE//
LGPZ 301050Z 24010KT 9999 FEW025 21/13 Q1007
TAF LGPZ 300500Z 3006/0106 08010KT 9999 FEW025 BKN080 
     PROB30 
     TEMPO 3010/3018 7000 RA SCT025 BKN080 
     BECMG 3009/3011 25012KT 
     BECMG 3020/3022 05007KT 
     BECMG 0101/0103 FEW025
       
LGRP 301050Z 12008KT 070V160 9999 FEW018 27/04 Q1010 NOSIG
TAF LGRP 300500Z 3006/0106 VRB03KT 9999 FEW020 
     BECMG 3006/3008 14012KT
       
LGRX 301020Z 26007KT CAVOK 23/14 Q1006
TAF LGRX 301100Z 3012/3021 27010KT 9999 FEW025
       
LGSA 301050Z 05008KT 9999 FEW016 24/15 Q1007
TAF LGSA 300500Z 3006/0106 14014KT 9999 FEW020 SCT090 
     BECMG 3012/3014 27010KT 
     PROB30 
     TEMPO 3018/0106 4000 SHRA FEW018CB BKN020
       
LGSK 301050Z 01009KT 9999 FEW020 SCT090 BKN180 20/13 Q1011
TAF LGSK 300800Z 3009/3018 35010KT 9999 FEW020 SCT060
       
LGSM 300950Z 17005KT 9999 FEW020 22/13 Q1011
TAF LGSM 300800Z 3009/3018 VRB03KT 9999 FEW020
       
LGSO 300850Z 07004KT CAVOK 21/11 Q1009
LGSR 301050Z 10005KT 060V140 CAVOK 22/15 Q1008 RMK FEW080 BKN180 BLU
TAF LGSR 300500Z 3006/0106 15010KT 9999 FEW025 
     TEMPO 3010/3018 15012G22KT 
     BECMG 3013/3015 28014KT 
     BECMG 3023/0101 FEW015 SCT025
       
TAF LGST 300800Z 3009/3018 18010KT 9999 FEW020 SCT080
       
TAF LGSY 301100Z 3012/3021 01008KT 9999 FEW025 SCT050 
     PROB30 
     TEMPO 3012/3014 7000 RA FEW020 BKN050
       
TAF LGTG 301100Z 3012/3021 07010KT 9999 FEW030 SCT070 
     TEMPO 3012/3015 07015G25KT
       
TAF LGTL 301100Z 3012/3021 20012KT 9999 FEW020 
     TEMPO 3012/3014 25015G25KT
       
LGTS 301050Z 18005KT 9999 FEW025TCU SCT040 18/14 Q1012 NOSIG
TAF LGTS 300500Z 3006/0106 33012KT 9999 SCT030 
     TEMPO 3006/3020 8000 RA FEW015 BKN025 
     PROB30 
     TEMPO 3006/3018 6000 TSRA FEW015CB BKN025 
     BECMG 3011/3013 17010KT 
     BECMG 3021/3023 33012KT
       
LGZA 301050Z 16008KT 9999 FEW020 22/15 Q1007
TAF LGZA 300800Z 3009/3018 34015KT 9999 FEW020
       
LGSM 300950Z 17005KT 9999 FEW020 22/13 Q1011
TAF LGSM 300800Z 3009/3018 VRB03KT 9999 FEW020
       
LGSR 301050Z 10005KT 060V140 CAVOK 22/15 Q1008 RMK FEW080 BKN180 BLU
TAF LGSR 300500Z 3006/0106 15010KT 9999 FEW025 
     TEMPO 3010/3018 15012G22KT 
     BECMG 3013/3015 28014KT 
     BECMG 3023/0101 FEW015 SCT025
       
LGSK 301050Z 01009KT 9999 FEW020 SCT090 BKN180 20/13 Q1011
TAF LGSK 300800Z 3009/3018 35010KT 9999 FEW020 SCT060
       
TAF LGSY 301100Z 3012/3021 01008KT 9999 FEW025 SCT050 
     PROB30 
     TEMPO 3012/3014 7000 RA FEW020 BKN050
       
LGSA 301050Z 05008KT 9999 FEW016 24/15 Q1007
TAF LGSA 300500Z 3006/0106 14014KT 9999 FEW020 SCT090 
     BECMG 3012/3014 27010KT 
     PROB30 
     TEMPO 3018/0106 4000 SHRA FEW018CB BKN020
       
LGSO 300850Z 07004KT CAVOK 21/11 Q1009
TAF LGTG 301100Z 3012/3021 07010KT 9999 FEW030 SCT070 
     TEMPO 3012/3015 07015G25KT
       
LGAD 301050Z 29005KT CAVOK 24/08 Q1006
TAF LGAD 300800Z 3009/3018 VRB03KT 9999 FEW020 SCT080 
     BECMG 3009/3011 29013KT
       
LGAL 301050Z 06009KT 9999 FEW030 27/11 Q1010
TAF LGAL 300800Z 3009/3018 08005KT 9999 FEW020
       
LGAV 301050Z 05009KT 020V080 9999 FEW020 25/05 Q1009 NOSIG
TAF LGAV 300500Z 3006/0106 VRB05KT 9999 FEW020 BKN070 
     BECMG 3009/3011 04012KT FEW020 SCT070
       
LGBL 301050Z 12007KT 9999 FEW035 25/12 Q1010
TAF LGBL 301100Z 3012/3021 11010KT 9999 FEW030 SCT080 
     BECMG 3019/3021 26008KT
       
LGEL 301050Z 18004KT 9999 FEW025 28/01 Q1008
TAF LGEL 300500Z 3006/0106 VRB03KT 9999 FEW025 BKN070 
     BECMG 3009/3011 16010KT FEW025 
     BECMG 3018/3020 35010KT
       
LGHI 301050Z 12004KT CAVOK 25/09 Q1009
TAF LGHI 300800Z 3009/3018 VRB03KT 9999 FEW020
       
LGIO 301050Z /////KT 9999 SCT060 OVC160 26/07 Q1010
TAF LGIO 300800Z 3009/3018 VRB03KT 9999 FEW020 SCT060 
     PROB30 
     TEMPO 3009/3015 4000 SHRA FEW018CB BKN020
       
LGIR 301050Z 16015KT 9999 FEW025 27/14 Q1006 NOSIG
TAF LGIR 300500Z 3006/0106 17015KT 9999 FEW020 SCT080 
     BECMG 3014/3016 33010KT 
     PROB30 
     TEMPO 3018/0106 4000 SHRA FEW018CB BKN020
       
LGKC 301050Z VRB03KT 9999 FEW018 21/17 Q1009
TAF LGKC 300800Z 3009/3018 21010KT 9999 FEW020
       
LGKF 301050Z 33011KT 9999 FEW018 23/11 Q1007
TAF LGKF 300800Z 3009/3018 34015KT 9999 FEW018
       
LGKL 301050Z 18005KT 8000 SCT025 SCT080 21/15 Q1007
TAF LGKL 300800Z 3009/3018 VRB03KT 9999 FEW025 
     BECMG 3010/3012 19008KT
       
LGKO 301050Z 13012KT CAVOK 22/11 Q1010
TAF LGKO 300500Z 3006/0106 13010KT 9999 FEW020
       
LGKP 301050Z 12007KT CAVOK 22/15 Q1010
TAF LGKP 300800Z 3009/3018 16014KT 9999 FEW020
       
LGKR 301050Z 34008KT CAVOK 24/11 Q1007 NOSIG
TAF LGKR 300500Z 3006/0106 VRB03KT 9999 FEW025 
     BECMG 3009/3011 30013KT FEW025 SCT080 
     PROB30 
     TEMPO 3014/3021 4000 SHRA FEW018CB SCT020 BKN080
       
LGKV 301050Z 23005KT 9999 FEW035 BKN080 19/12 Q1011
TAF LGKV 300800Z 3009/3018 08005KT 9999 FEW025 BKN080
       
LGKZ 301050Z 00000KT 9999 FEW030 SCT070 OVC170 21/10 Q1013
LGLM 301050Z 36010KT 9999 FEW025 23/10 Q1011
TAF LGLM 300800Z 3009/3018 04008KT 9999 FEW020
       
TAF LGLR 301100Z 3012/3021 10008KT 9999 FEW030 SCT080 
     PROB30 
     TEMPO 3012/3018 5000 RA FEW030 BKN080 
     BECMG 3019/3021 VRB03KT
       
LGMK 301050Z /////KT CAVOK 22/09 Q1009
TAF LGMK 300800Z 3009/3018 10015KT 9999 FEW018
       
LGMT 301050Z 00000KT CAVOK 23/13 Q1011
TAF LGMT 300800Z 3009/3018 VRB03KT 9999 FEW020
       
LGNX 301050Z 35008KT CAVOK 23/12 Q1008
LGPA 301050Z AUTO 13016KT //// // ////// 24/06 Q1008 RE//
LGPZ 301050Z 24010KT 9999 FEW025 21/13 Q1007
TAF LGPZ 300500Z 3006/0106 08010KT 9999 FEW025 BKN080 
     PROB30 
     TEMPO 3010/3018 7000 RA SCT025 BKN080 
     BECMG 3009/3011 25012KT 
     BECMG 3020/3022 05007KT 
     BECMG 0101/0103 FEW025
       
LGRP 301050Z 12008KT 070V160 9999 FEW018 27/04 Q1010 NOSIG
TAF LGRP 300500Z 3006/0106 VRB03KT 9999 FEW020 
     BECMG 3006/3008 14012KT
       
LGRX 301020Z 26007KT CAVOK 23/14 Q1006
TAF LGRX 301100Z 3012/3021 27010KT 9999 FEW025
       
LGSA 301050Z 05008KT 9999 FEW016 24/15 Q1007
TAF LGSA 300500Z 3006/0106 14014KT 9999 FEW020 SCT090 
     BECMG 3012/3014 27010KT 
     PROB30 
     TEMPO 3018/0106 4000 SHRA FEW018CB BKN020
       
LGSK 301050Z 01009KT 9999 FEW020 SCT090 BKN180 20/13 Q1011
TAF LGSK 300800Z 3009/3018 35010KT 9999 FEW020 SCT060
       
LGSM 300950Z 17005KT 9999 FEW020 22/13 Q1011
TAF LGSM 300800Z 3009/3018 VRB03KT 9999 FEW020
       
LGSO 300850Z 07004KT CAVOK 21/11 Q1009
LGSR 301050Z 10005KT 060V140 CAVOK 22/15 Q1008 RMK FEW080 BKN180 BLU
TAF LGSR 300500Z 3006/0106 15010KT 9999 FEW025 
     TEMPO 3010/3018 15012G22KT 
     BECMG 3013/3015 28014KT 
     BECMG 3023/0101 FEW015 SCT025
       
TAF LGST 300800Z 3009/3018 18010KT 9999 FEW020 SCT080
       
TAF LGSY 301100Z 3012/3021 01008KT 9999 FEW025 SCT050 
     PROB30 
     TEMPO 3012/3014 7000 RA FEW020 BKN050
       
TAF LGTG 301100Z 3012/3021 07010KT 9999 FEW030 SCT070 
     TEMPO 3012/3015 07015G25KT
       
TAF LGTL 301100Z 3012/3021 20012KT 9999 FEW020 
     TEMPO 3012/3014 25015G25KT
       
LGTS 301050Z 18005KT 9999 FEW025TCU SCT040 18/14 Q1012 NOSIG
TAF LGTS 300500Z 3006/0106 33012KT 9999 SCT030 
     TEMPO 3006/3020 8000 RA FEW015 BKN025 
     PROB30 
     TEMPO 3006/3018 6000 TSRA FEW015CB BKN025 
     BECMG 3011/3013 17010KT 
     BECMG 3021/3023 33012KT
       
LGZA 301050Z 16008KT 9999 FEW020 22/15 Q1007
TAF LGZA 300800Z 3009/3018 34015KT 9999 FEW020
       
LGZA 301050Z 16008KT 9999 FEW020 22/15 Q1007
TAF LGZA 300800Z 3009/3018 34015KT 9999 FEW020